[[{"header":{"parameterUnit":"m.s-1","parameterCategory":1,"la1":30.2991,"la2":30.254,"lo1":-89.0895,"lo2":-89.0444,"dy":0.0017,"dx":0.0017,"nx":28,"ny":28,"refTime":"2025-09-03T21:00:00:Z","depth":0,"parameterNumber":2,"parameterNumberName":"U-component_of_WINDS"},"data":[0,0,0,0,0,0,0,0,0,0,0,0,0,0,0,0,0,0,0,0,0,0,0,0,0,0,0,0,0,0,0,0,0,0,0,0,0,0,0,0,0,0,0,0,0,0,0,0,0,0,0,0,0,0,0,0,0,0,2.535,2.535,0,2.5387,2.5387,2.5387,2.5336,2.5334,2.5332,2.533,2.5368,2.537,2.5373,0,0,0,0,0,0,0,0,0,0,0,0,0,2.5232,2.5234,2.535,2.535,2.5351,2.5387,2.5387,2.5388,2.5336,2.5334,2.5331,2.5329,2.5367,2.537,2.5373,0,0,0,0,0,0,0,0,0,0,0,0,0,2.5277,2.5235,2.535,2.5329,2.5328,2.5386,2.5387,2.5388,2.5336,2.5334,2.5331,2.5328,2.5366,2.537,2.5374,2.5454,0,0,2.5386,2.5388,0,0,0,0,0,0,0,0,2.5275,2.5282,2.5332,2.5331,2.5329,2.5354,2.5359,2.541,2.5337,2.5333,2.533,2.5327,2.5365,2.5369,2.5382,2.5456,2.5457,2.5386,2.5389,2.5391,2.5392,0,0,0,0,0,0,0,2.5272,2.528,2.5364,2.5332,2.5331,2.5317,2.5321,2.5369,2.5364,2.5333,2.5329,2.5335,2.5364,2.5378,2.5383,2.5458,2.5386,2.539,2.5392,2.5394,2.5595,2.5598,0,0,0,0,0,0,2.5271,2.5278,2.5363,2.5365,2.5295,2.5322,2.5325,2.5349,2.5363,2.5363,2.5337,2.5332,2.5373,2.5378,2.5384,2.5475,2.5391,2.5394,2.5397,2.5592,2.5596,2.5599,0,0,0,0,0,0,2.5269,2.5279,2.5362,2.532,2.533,2.5327,2.5353,2.5351,2.5365,2.5366,2.5365,2.5352,2.5371,2.5378,2.5436,2.5476,2.5396,2.54,2.5589,2.5594,2.5598,2.5662,0,0,0,0,0,0,2.5266,2.5279,2.531,2.5322,2.5332,2.5414,2.5356,2.5353,2.5372,2.5366,2.5381,2.538,2.5369,2.543,2.544,2.548,2.5403,2.5585,2.5591,2.5596,2.5656,2.5668,2.5678,0,0,0,0,0,2.5262,2.5328,2.5312,2.5323,2.5371,2.5417,2.5423,2.5408,2.5376,2.5406,2.5407,2.538,2.5471,2.5437,2.5447,2.5489,2.5583,2.5589,2.5596,2.5651,2.5666,2.5678,0,0,0,0,0,0,2.5322,2.5329,2.5312,2.5384,2.54,2.5408,2.5446,2.5425,2.5451,2.5444,2.5425,2.5429,2.549,2.5496,2.5458,2.5566,2.5521,2.553,2.556,2.5573,2.5584,2.558,2.5407,0,0,0,0,0,2.5344,2.538,2.5384,2.5447,2.5456,2.545,2.5469,2.5457,2.5473,2.5479,2.5484,2.55,2.5532,2.5554,2.5583,2.5658,2.5658,2.5692,2.5703,2.5712,2.5719,2.5755,2.5768,2.5621,2.5621,2.562,0,0,2.5389,2.5397,2.5421,2.5459,2.547,2.5507,2.5456,2.5498,2.5525,2.5486,2.554,2.5544,2.5561,2.5626,2.5655,2.5633,2.576,2.572,2.5727,2.5729,2.5763,2.5777,2.5789,2.5625,2.5624,2.5623,0,0,2.5488,2.55,2.5552,2.5563,2.558,2.5575,2.5588,2.5599,2.5599,2.5654,2.5624,2.5655,2.5712,2.5723,2.5737,2.5839,2.5814,2.5849,2.5906,2.5941,2.5952,2.5962,2.5995,2.6008,2.5857,2.5857,2.5857,0,2.5542,2.5597,2.5581,2.5624,2.564,2.5606,2.5657,2.5669,2.5695,2.5707,2.5681,2.5749,2.5758,2.5824,2.5848,2.5862,2.5873,2.5846,2.5952,2.5962,2.5971,2.6002,2.6015,2.5861,2.5861,2.586,2.586,0,2.566,2.5698,2.5738,2.5762,2.5783,2.5831,2.582,2.5843,2.5829,2.5826,2.588,2.5889,2.5918,2.5934,2.5921,2.5997,2.5982,2.5955,2.5909,2.599,2.6018,2.603,2.5867,2.5865,2.5864,2.5863,0,0,2.5799,2.5812,2.5827,2.5836,2.5851,2.588,2.5924,2.5952,2.5971,2.599,2.6025,2.6072,2.6046,2.6061,2.6049,2.6081,2.6156,2.6049,2.6049,2.6066,2.6237,2.6255,2.6269,2.6141,2.6143,2.6145,2.6234,0,2.5896,2.5972,2.5957,2.6031,2.6064,2.6031,2.6069,2.6082,2.6081,2.6108,2.6106,2.6138,2.6104,2.6112,2.6142,2.6141,2.619,2.6135,2.6171,2.6172,2.6164,2.6285,2.6305,2.6388,2.6246,2.6248,2.6249,0,2.6019,2.604,2.6117,2.6123,2.6137,2.6172,2.6194,2.6222,2.6235,2.6231,2.6247,2.6228,2.6271,2.6226,2.6282,2.6245,2.6259,2.6261,2.6264,2.6264,2.6213,2.6285,2.6415,2.6427,2.6267,2.6266,2.6265,0,2.6108,2.6156,2.6207,2.6217,2.6227,2.6251,2.6257,2.6267,2.6284,2.6304,2.6314,2.6339,2.6352,2.6372,2.6359,2.6329,2.6417,2.6372,2.6413,2.6413,2.6431,2.643,2.6562,2.6446,2.6446,2.6445,2.6445,0,2.6215,2.6263,2.6247,2.6278,2.6329,2.6312,2.6363,2.6364,2.6373,2.6403,2.6377,2.6406,2.6389,2.6416,2.6407,2.6453,2.646,2.6457,2.6453,2.6457,2.6457,2.6464,2.6457,2.6449,2.6448,2.6447,2.6447,0,2.6322,2.6314,2.6367,2.6371,2.6373,2.6411,2.6414,2.6442,2.6438,2.6476,2.6484,2.6477,2.6507,2.6497,2.653,2.6524,2.6581,2.6572,2.6577,2.6573,2.6613,2.6608,2.6752,2.6769,2.6645,2.6646,2.6647,0,2.639,2.6425,2.6433,2.645,2.6457,2.6487,2.6503,2.6487,2.6505,2.6521,2.6546,2.6574,2.6595,2.6644,2.6641,2.6666,2.6654,2.6703,2.6658,2.666,2.6651,2.6648,2.665,2.6711,2.6713,2.6714,2.6715,0,2.651,2.6503,2.6528,2.655,2.6569,2.6587,2.6601,2.6617,2.6602,2.6623,2.6652,2.6669,2.6701,2.6727,2.6748,2.6753,2.6731,2.673,2.674,2.6743,2.6742,2.6739,2.6598,2.6726,2.6725,2.6724,2.6723,2.6723,2.6597,2.6625,2.6634,2.6661,2.667,2.6684,2.6709,2.6707,2.6732,2.6756,2.6745,2.6779,2.6788,2.6814,2.6822,2.6847,2.6828,2.6843,2.6847,2.685,2.6853,2.6741,2.6851,2.6851,2.685,2.685,2.685,0,2.6713,2.6716,2.6741,2.6761,2.6782,2.6759,2.6773,2.6792,2.6821,2.6832,2.6852,2.6885,2.691,2.6909,2.6932,2.6952,2.6942,2.6958,2.6955,2.6956,2.6871,2.6858,2.6966,2.6966,2.6966,2.6966,2.6966,2.6966,2.6775,2.682,2.6814,2.6862,2.6866,2.6897,2.6907,2.6918,2.6926,2.6963,2.6984,2.6983,2.6988,2.7011,2.7032,2.7031,2.704,2.7059,2.7054,2.6974,2.6962,2.6951,2.6939,2.7062,2.7062,2.7136,2.7137,2.7137]},{"header":{"parameterUnit":"m.s-1","parameterCategory":1,"la1":30.2991,"la2":30.254,"lo1":-89.0895,"lo2":-89.0444,"dy":0.0017,"dx":0.0017,"nx":28,"ny":28,"refTime":"2025-09-03T21:00:00:Z","depth":0,"parameterNumber":3,"parameterNumberName":"V-component_of_WINDS"},"data":[0,0,0,0,0,0,0,0,0,0,0,0,0,0,0,0,0,0,0,0,0,0,0,0,0,0,0,0,0,0,0,0,0,0,0,0,0,0,0,0,0,0,0,0,0,0,0,0,0,0,0,0,0,0,0,0,0,0,3.2346,3.2346,0,3.2416,3.2417,3.2418,3.2384,3.2383,3.2381,3.2379,3.2447,3.245,3.2454,0,0,0,0,0,0,0,0,0,0,0,0,0,3.2175,3.2179,3.2346,3.2346,3.2347,3.2416,3.2417,3.2418,3.2385,3.2382,3.238,3.2378,3.2446,3.245,3.2454,0,0,0,0,0,0,0,0,0,0,0,0,0,3.2248,3.218,3.2345,3.2339,3.2339,3.2416,3.2417,3.2418,3.2385,3.2382,3.238,3.2377,3.2444,3.2449,3.2455,3.254,0,0,3.247,3.2473,0,0,0,0,0,0,0,0,3.2244,3.2254,3.2339,3.234,3.234,3.2389,3.2382,3.2459,3.2386,3.2368,3.2379,3.2376,3.2429,3.2436,3.2455,3.2543,3.2546,3.2471,3.2474,3.2476,3.2478,0,0,0,0,0,0,0,3.2239,3.2251,3.2373,3.234,3.2341,3.2331,3.2338,3.2396,3.2412,3.2369,3.2367,3.2376,3.2429,3.245,3.2456,3.2547,3.2471,3.2475,3.2479,3.2481,3.2707,3.271,0,0,0,0,0,0,3.2235,3.2247,3.2371,3.2375,3.2284,3.2336,3.2344,3.2376,3.2412,3.2415,3.2378,3.2374,3.2442,3.245,3.2458,3.2559,3.2476,3.2481,3.2484,3.2704,3.2707,3.2711,0,0,0,0,0,0,3.2231,3.2246,3.2368,3.2311,3.2325,3.2342,3.2377,3.2379,3.2399,3.2419,3.2421,3.2397,3.244,3.2451,3.252,3.2561,3.2483,3.2488,3.2701,3.2705,3.2709,3.2763,0,0,0,0,0,0,3.2227,3.2245,3.228,3.2312,3.2329,3.2431,3.238,3.2382,3.2409,3.2404,3.2437,3.2439,3.2439,3.2512,3.2525,3.2567,3.2492,3.2697,3.2703,3.2708,3.2757,3.2768,3.2778,0,0,0,0,0,3.2221,3.2291,3.2281,3.2297,3.2372,3.2433,3.2443,3.2442,3.2412,3.2446,3.2458,3.2438,3.2555,3.252,3.2534,3.2578,3.2694,3.2701,3.2707,3.2753,3.2766,3.2777,0,0,0,0,0,0,3.2262,3.2296,3.2285,3.2369,3.2399,3.2427,3.247,3.2457,3.2495,3.2488,3.2485,3.2492,3.2563,3.2577,3.2538,3.2661,3.262,3.2629,3.2649,3.2662,3.2672,3.2667,3.2497,0,0,0,0,0,3.2282,3.233,3.2356,3.2427,3.2443,3.2454,3.248,3.2477,3.2507,3.2519,3.2537,3.2565,3.2607,3.2636,3.2676,3.2759,3.2764,3.2796,3.2806,3.2815,3.2823,3.2865,3.2878,3.2732,3.2732,3.2732,0,0,3.2321,3.2345,3.2376,3.2436,3.2459,3.2507,3.2465,3.2518,3.2553,3.2527,3.2593,3.2606,3.2638,3.2713,3.2747,3.2727,3.2864,3.2823,3.2829,3.2833,3.2873,3.2887,3.2899,3.2736,3.2735,3.2735,0,0,3.2418,3.2442,3.2503,3.2527,3.2562,3.2569,3.2583,3.2614,3.2622,3.2689,3.267,3.271,3.2785,3.2807,3.2828,3.2931,3.2914,3.2944,3.2997,3.3038,3.305,3.306,3.3095,3.3108,3.2952,3.2953,3.2953,0,3.2462,3.2536,3.2535,3.259,3.2616,3.2596,3.2656,3.2678,3.2724,3.2741,3.2718,3.281,3.283,3.2909,3.2934,3.2953,3.2967,3.294,3.3049,3.3059,3.3068,3.3101,3.3115,3.2956,3.2955,3.2955,3.2955,0,3.2587,3.2638,3.2683,3.2729,3.276,3.2817,3.2823,3.2854,3.2848,3.2856,3.2922,3.2945,3.2989,3.3008,3.3002,3.3086,3.3072,3.3049,3.3007,3.3086,3.3116,3.3129,3.2961,3.2959,3.2958,3.2958,0,0,3.2712,3.2757,3.2773,3.2793,3.2829,3.2868,3.2923,3.2967,3.2992,3.3024,3.3068,3.3131,3.3109,3.3133,3.313,3.3166,3.3244,3.3139,3.3139,3.3156,3.3334,3.335,3.3365,3.3233,3.3235,3.3237,3.3331,0,3.281,3.2908,3.2908,3.2998,3.3043,3.3024,3.3071,3.3098,3.3107,3.3145,3.3154,3.3198,3.3167,3.3181,3.3217,3.3227,3.3279,3.322,3.3271,3.3273,3.3263,3.3381,3.3399,3.3486,3.3343,3.3345,3.3347,0,3.2937,3.2974,3.3068,3.3096,3.3115,3.3159,3.3197,3.3235,3.3264,3.3267,3.3294,3.3284,3.3337,3.3294,3.3366,3.3326,3.3347,3.3355,3.3358,3.3362,3.3314,3.3386,3.3515,3.3527,3.3366,3.3365,3.3363,0,3.3016,3.309,3.3155,3.3172,3.3208,3.3238,3.3253,3.3279,3.3305,3.3338,3.3355,3.3394,3.3415,3.3444,3.3444,3.3413,3.3516,3.3474,3.3518,3.3518,3.354,3.3538,3.3671,3.3556,3.3556,3.3556,3.3555,0,3.3125,3.3182,3.3191,3.3231,3.3294,3.3293,3.3355,3.3367,3.339,3.343,3.3416,3.3454,3.3453,3.349,3.349,3.3548,3.3558,3.3561,3.356,3.3562,3.3561,3.3574,3.3567,3.3559,3.3558,3.3558,3.3557,0,3.3223,3.3232,3.3301,3.3329,3.3337,3.3382,3.3404,3.3441,3.3448,3.3499,3.3511,3.3522,3.3565,3.3568,3.3618,3.3618,3.3688,3.3681,3.3679,3.3677,3.3721,3.3716,3.3866,3.3884,3.3759,3.376,3.3761,0,3.3291,3.3335,3.3367,3.3394,3.3412,3.3455,3.3481,3.3481,3.3508,3.3543,3.3575,3.3617,3.3651,3.372,3.3731,3.3769,3.3761,3.3811,3.3767,3.3766,3.376,3.3757,3.376,3.382,3.3821,3.3822,3.3823,0,3.341,3.3412,3.3451,3.3491,3.3523,3.3554,3.3583,3.3605,3.3608,3.3639,3.3684,3.371,3.3761,3.3802,3.3839,3.3852,3.3837,3.3837,3.3849,3.385,3.3846,3.3847,3.3701,3.3833,3.3832,3.3832,3.3831,3.3831,3.3494,3.3531,3.356,3.3603,3.3625,3.3652,3.3688,3.3699,3.3737,3.3779,3.3776,3.3825,3.385,3.3897,3.3914,3.395,3.3933,3.3951,3.3955,3.3959,3.3963,3.3842,3.3957,3.3957,3.3957,3.3956,3.3956,0,3.361,3.3627,3.3667,3.3709,3.3742,3.3727,3.3758,3.3786,3.383,3.3855,3.3888,3.3938,3.3978,3.3992,3.4029,3.4056,3.405,3.4065,3.4063,3.4066,3.3977,3.3962,3.407,3.407,3.407,3.407,3.4069,3.4069,3.3675,3.3736,3.3741,3.3812,3.3828,3.3877,3.3896,3.392,3.394,3.3997,3.403,3.4039,3.4059,3.4098,3.4132,3.4135,3.4149,3.4167,3.4167,3.4084,3.4072,3.4061,3.4047,3.417,3.4171,3.4252,3.4252,3.4253]}]]